When you browse on this site, cookies collect data to enhance your experience and personalize the content and advertising you see.
Visit our Privacy Policy to learn more. By continuing to use the site, you agree to this use of cookies and data.
  • In Czech Republic
  • List of Countries
  • For 7 days
  • Water Temperature
  • Satellite Maps
  • Weather Map
  • Weather Widgets
  • user-avatar
    Login

    Hourly Weather Xi'an

    Today, 26 June, Wednesday

    Time Temperature Precipitation Wind Pressure Humidity
    00:00 +28°C° 0 mm 2 mps 720 mmHg 63%
    01:00 +27°C° 0 mm 2 mps 719 mmHg 64%
    02:00 +27°C° 0 mm 2 mps 719 mmHg 65%
    03:00 +26°C° 0 mm 2 mps 719 mmHg 66%
    04:00 +26°C° 0 mm 2 mps 719 mmHg 67%
    05:00 +27°C° 0 mm 2 mps 719 mmHg 64%
    06:00 +27°C° 0 mm 2 mps 719 mmHg 62%
    07:00 +28°C° 0 mm 2 mps 719 mmHg 59%
    08:00 +30°C° 0 mm 2 mps 719 mmHg 55%
    09:00 +31°C° 0 mm 2 mps 719 mmHg 51%
    10:00 +34°C° 0 mm 2 mps 719 mmHg 48%
    11:00 +35°C° 0.1 mm 2 mps 718 mmHg 45%
    12:00 +36°C° 0.1 mm 2 mps 717 mmHg 42%
    13:00 +37°C° 0.1 mm 2 mps 716 mmHg 39%
    14:00 +37°C° 0.1 mm 3 mps 716 mmHg 39%
    15:00 +37°C° 0.1 mm 3 mps 715 mmHg 38%
    16:00 +38°C° 0.1 mm 4 mps 715 mmHg 37%
    17:00 +36°C° 0 mm 4 mps 715 mmHg 41%
    18:00 +35°C° 0 mm 4 mps 715 mmHg 45%
    19:00 +34°C° 0 mm 4 mps 715 mmHg 49%
    20:00 +33°C° 0 mm 4 mps 715 mmHg 51%
    21:00 +32°C° 0 mm 4 mps 715 mmHg 52%
    22:00 +30°C° 0 mm 4 mps 716 mmHg 54%
    23:00 +30°C° 0 mm 3 mps 715 mmHg 54%

    Tomorrow, 27 June, Thursday

    Time Temperature Precipitation Wind Pressure Humidity
    00:00 +30°C° 0 mm 3 mps 715 mmHg 54%
    01:00 +30°C° 0 mm 3 mps 715 mmHg 54%
    02:00 +29°C° 0.1 mm 3 mps 715 mmHg 57%
    03:00 +29°C° 0.1 mm 2 mps 714 mmHg 59%
    04:00 +28°C° 0.1 mm 2 mps 714 mmHg 62%
    05:00 +28°C° 0.2 mm 2 mps 715 mmHg 64%
    06:00 +28°C° 0.2 mm 2 mps 715 mmHg 67%
    07:00 +27°C° 0.2 mm 2 mps 715 mmHg 69%
    08:00 +27°C° 0.1 mm 2 mps 715 mmHg 69%
    09:00 +27°C° 0.1 mm 2 mps 716 mmHg 69%
    10:00 +28°C° 0.1 mm 2 mps 716 mmHg 70%
    11:00 +27°C° 0.6 mm 2 mps 716 mmHg 74%
    12:00 +26°C° 0.6 mm 2 mps 715 mmHg 78%
    13:00 +25°C° 0.6 mm 2 mps 715 mmHg 83%
    14:00 +24°C° 3.7 mm 3 mps 715 mmHg 85%
    15:00 +24°C° 3.7 mm 3 mps 716 mmHg 87%
    16:00 +22°C° 3.7 mm 4 mps 716 mmHg 89%
    17:00 +22°C° 1.9 mm 4 mps 716 mmHg 89%
    18:00 +22°C° 1.9 mm 5 mps 717 mmHg 90%
    19:00 +21°C° 1.9 mm 5 mps 717 mmHg 90%
    20:00 +21°C° 1.2 mm 5 mps 718 mmHg 89%
    21:00 +21°C° 1.2 mm 5 mps 718 mmHg 89%
    22:00 +21°C° 1.2 mm 4 mps 719 mmHg 88%
    23:00 +21°C° 0.3 mm 4 mps 719 mmHg 87%

    Day after tomorrow, 28 June, Friday

    Time Temperature Precipitation Wind Pressure Humidity
    00:00 +21°C° 0.3 mm 3 mps 718 mmHg 86%
    01:00 +21°C° 0.3 mm 3 mps 718 mmHg 85%
    02:00 +21°C° 0 mm 2 mps 718 mmHg 84%
    03:00 +21°C° 0 mm 2 mps 718 mmHg 82%
    04:00 +21°C° 0 mm 2 mps 718 mmHg 81%
    05:00 +23°C° 0 mm 2 mps 718 mmHg 79%
    06:00 +23°C° 0 mm 2 mps 718 mmHg 78%
    07:00 +23°C° 0 mm 1 mps 718 mmHg 76%
    08:00 +24°C° 0 mm 2 mps 718 mmHg 71%
    09:00 +26°C° 0 mm 2 mps 719 mmHg 66%
    10:00 +27°C° 0 mm 2 mps 719 mmHg 61%
    11:00 +27°C° 0 mm 2 mps 718 mmHg 58%
    12:00 +28°C° 0 mm 2 mps 718 mmHg 55%
    13:00 +29°C° 0 mm 2 mps 717 mmHg 52%
    14:00 +30°C° 0 mm 3 mps 717 mmHg 49%
    15:00 +30°C° 0 mm 3 mps 717 mmHg 45%
    16:00 +31°C° 0 mm 3 mps 717 mmHg 42%
    17:00 +30°C° 0 mm 3 mps 717 mmHg 42%
    18:00 +29°C° 0 mm 2 mps 717 mmHg 43%
    19:00 +28°C° 0 mm 2 mps 717 mmHg 44%
    20:00 +28°C° 0 mm 2 mps 717 mmHg 43%
    21:00 +27°C° 0 mm 2 mps 717 mmHg 42%
    22:00 +27°C° 0 mm 2 mps 718 mmHg 41%
    23:00 +26°C° 0 mm 2 mps 718 mmHg 41%

    29 June, Saturday

    Time Temperature Precipitation Wind Pressure Humidity
    00:00 +26°C° 0 mm 2 mps 717 mmHg 41%
    01:00 +26°C° 0 mm 2 mps 717 mmHg 41%
    02:00 +25°C° 0 mm 2 mps 717 mmHg 41%
    03:00 +25°C° 0 mm 2 mps 717 mmHg 42%
    04:00 +25°C° 0 mm 2 mps 717 mmHg 43%
    05:00 +26°C° 0 mm 2 mps 717 mmHg 43%
    06:00 +27°C° 0 mm 2 mps 717 mmHg 42%
    07:00 +28°C° 0 mm 2 mps 717 mmHg 42%
    08:00 +30°C° 0 mm 2 mps 717 mmHg 38%
    09:00 +32°C° 0 mm 2 mps 717 mmHg 33%
    10:00 +35°C° 0 mm 2 mps 717 mmHg 29%
    11:00 +37°C° 0 mm 2 mps 717 mmHg 26%
    12:00 +38°C° 0 mm 2 mps 716 mmHg 23%
    13:00 +40°C° 0 mm 2 mps 716 mmHg 19%
    14:00 +40°C° 0 mm 2 mps 716 mmHg 19%
    15:00 +40°C° 0 mm 2 mps 715 mmHg 19%
    16:00 +40°C° 0 mm 2 mps 715 mmHg 19%
    17:00 +38°C° 0 mm 3 mps 715 mmHg 22%
    18:00 +36°C° 0 mm 3 mps 716 mmHg 25%
    19:00 +34°C° 0 mm 3 mps 716 mmHg 28%
    20:00 +33°C° 0 mm 3 mps 716 mmHg 28%
    21:00 +32°C° 0 mm 2 mps 717 mmHg 28%
    22:00 +31°C° 0 mm 2 mps 717 mmHg 28%
    23:00 +30°C° 0 mm 2 mps 717 mmHg 29%

    30 June, Sunday

    Time Temperature Precipitation Wind Pressure Humidity
    00:00 +30°C° 0 mm 1 mps 717 mmHg 31%
    01:00 +29°C° 0 mm 1 mps 717 mmHg 32%
    02:00 +29°C° 0 mm 1 mps 717 mmHg 32%
    03:00 +28°C° 0 mm 1 mps 718 mmHg 33%
    04:00 +28°C° 0 mm 1 mps 718 mmHg 33%
    05:00 +27°C° 0 mm 0 mps 718 mmHg 33%
    06:00 +28°C° 0 mm 0 mps 718 mmHg 33%
    07:00 +29°C° 0 mm 0 mps 719 mmHg 33%
    08:00 +30°C° 0 mm 0 mps 719 mmHg 30%
    09:00 +32°C° 0 mm 0 mps 719 mmHg 27%
    10:00 +35°C° 0 mm 1 mps 719 mmHg 24%
    11:00 +36°C° 0 mm 1 mps 719 mmHg 22%
    12:00 +39°C° 0 mm 1 mps 718 mmHg 20%
    13:00 +40°C° 0 mm 1 mps 718 mmHg 18%
    14:00 +40°C° 0 mm 2 mps 718 mmHg 17%
    15:00 +40°C° 0 mm 2 mps 717 mmHg 17%
    16:00 +40°C° 0 mm 2 mps 717 mmHg 16%
    17:00 +38°C° 0 mm 2 mps 717 mmHg 19%
    18:00 +37°C° 0 mm 2 mps 717 mmHg 21%
    19:00 +35°C° 0 mm 2 mps 718 mmHg 23%
    20:00 +34°C° 0 mm 2 mps 718 mmHg 25%
    21:00 +32°C° 0 mm 2 mps 718 mmHg 26%
    22:00 +31°C° 0 mm 2 mps 719 mmHg 27%
    23:00 +30°C° 0 mm 2 mps 719 mmHg 28%

    1 July, Monday

    Time Temperature Precipitation Wind Pressure Humidity
    00:00 +30°C° 0 mm 2 mps 719 mmHg 29%
    01:00 +29°C° 0 mm 2 mps 718 mmHg 30%
    02:00 +29°C° 0 mm 2 mps 718 mmHg 31%
    03:00 +29°C° 0 mm 1 mps 719 mmHg 32%
    04:00 +28°C° 0 mm 1 mps 719 mmHg 34%
    05:00 +29°C° 0 mm 1 mps 719 mmHg 34%
    06:00 +30°C° 0 mm 1 mps 719 mmHg 35%
    07:00 +31°C° 0 mm 1 mps 719 mmHg 36%
    08:00 +33°C° 0 mm 1 mps 719 mmHg 33%
    09:00 +34°C° 0 mm 1 mps 719 mmHg 30%
    10:00 +36°C° 0 mm 1 mps 719 mmHg 27%
    11:00 +37°C° 0 mm 1 mps 719 mmHg 25%
    12:00 +40°C° 0 mm 1 mps 719 mmHg 23%
    13:00 +41°C° 0 mm 1 mps 718 mmHg 21%
    14:00 +41°C° 0 mm 2 mps 718 mmHg 23%
    15:00 +40°C° 0 mm 3 mps 717 mmHg 24%
    16:00 +41°C° 0 mm 4 mps 717 mmHg 25%
    17:00 +38°C° 0 mm 4 mps 717 mmHg 28%
    18:00 +37°C° 0 mm 4 mps 717 mmHg 31%
    19:00 +35°C° 0 mm 4 mps 717 mmHg 34%
    20:00 +34°C° 0 mm 3 mps 718 mmHg 34%
    21:00 +33°C° 0 mm 3 mps 718 mmHg 34%
    22:00 +33°C° 0 mm 3 mps 719 mmHg 34%
    23:00 +31°C° 0 mm 3 mps 719 mmHg 36%
    Show more